Regional Weather Roundup
Issued by NWS

Home | Current Version | Previous Version | Graphics & Text | Print | Product List | Glossary On
Versions: 1 2 3 4 5 6 7 8 9 10 11 12 13 14 15 16 17 18 19 20 21 22 23 24 25 26 27 28 29 30 31 32 33 34 35 36 37 38 39 40 41 42 43 44 45 46 47 48 49 50
000
ASUS45 KBOU 031907
RWRCO

WEATHER ROUNDUP FOR COLORADO
NATIONAL WEATHER SERVICE DENVER/BOULDER CO
100 PM MDT WED JUN 03 2015

NOTE: "FAIR" INDICATES FEW OR NO CLOUDS BELOW 12000 FEET WITH NO
SIGNIFICANT WEATHER AND/OR OBSTRUCTIONS TO VISIBILITY.

COZ001>005-013-030-031-032000-
...NORTHWEST COLORADO...

CITY           SKY/WX    TMP DP  RH WIND       PRES   REMARKS
CRAIG          SUNNY     76  41  28 NW9       29.97F
HAYDEN         SUNNY     73  28  19 N5        29.99F
MEEKER         MOSUNNY   80  28  15 S9        29.97F
MOUNT WERNER   NOT AVBL
STEAMBOAT SPGS MOSUNNY   73  32  22 W6        30.01F
WALDEN         MOSUNNY   70  27  19 SE7       30.11F
$$

COZ006>008-011-032000-
...WEST CENTRAL VALLEYS...

CITY           SKY/WX    TMP DP  RH WIND       PRES   REMARKS
GRAND JUNCTION SUNNY     81  30  15 W10       29.89F
MONTROSE       SUNNY     84  15   7 SW17G23   29.97F
EAGLE          MOSUNNY   84  30  14 NW7       30.01F
RIFLE          SUNNY     80  32  17 W12       29.92F
DELTA          SUNNY     86  20   9 SE5       29.93F
NUCLA          SUNNY     81  18   9 SW17G23   30.03F
$$

COZ017>023-064>068-032000-
...SOUTHWEST COLORADO...

CITY           SKY/WX    TMP DP  RH WIND       PRES   REMARKS
DURANGO        SUNNY     74  30  19 E9        30.10F
CORTEZ         SUNNY     79  12   8 SW13G25   30.03F
PAGOSA SPRINGS SUNNY     71  11  10 SW8       30.18F
TELLURIDE      SUNNY     67  16  14 S15G22    30.22S
WOLF CREEK PAS NOT AVBL
$$

COZ009-010-012-014-032>034-037-058>063-032000-
...CENTRAL COLORADO...

CITY           SKY/WX    TMP DP  RH WIND       PRES   REMARKS
ASPEN          SUNNY     73  23  15 VRB5      30.08F
BUENA VISTA    SUNNY     74  18  12 E18G25    30.12F
COPPER MTN     MOSUNNY   55   9  15 E17G23    30.39F
BERTHOUD PASS  PTSUNNY   41  34  75 MISG      30.45F
COTTONWOOD PAS NOT AVBL
GUNNISON       SUNNY     72  23  16 NE7       30.12F
KREMMLING      SUNNY     73  14  10 CALM      30.07F
LEADVILLE      SUNNY     63  15  15 MISG      30.23F
MONARCH PASS   MOSUNNY   54  19  26 S13G29    30.51F
SALIDA         SUNNY     77  19  11 SE13G20   30.17F
SUNLIGHT       SUNNY     63  23  22 S3        30.32F
WILKERSON PASS MOSUNNY   61  18  18 S9        30.39F
$$

COZ069>075-032000-
...SAN LUIS VALLEY/SANGRE DE CRISTO MOUNTAINS...

CITY           SKY/WX    TMP DP  RH WIND       PRES   REMARKS
ALAMOSA        SUNNY     78  15   9 S12G20    30.12F
LA VETA PASS   PTSUNNY  N/A N/A N/A MISG      30.34F
SAGUACHE       SUNNY     72  27  18 S6        30.16F
$$

COZ035-036-038>040-032000-
...NORTHERN COLORADO FRONT RANGE...

CITY           SKY/WX    TMP DP  RH WIND       PRES   REMARKS
DENVER INTL AP PTSUNNY   68  56  65 E9        30.06F
DMNS CITY PARK   N/A     71  55  57 NE12      30.04F
AURORA         PTSUNNY   67  56  66 NE12      30.07F
FRONT RANGE AP PTSUNNY   66  57  72 CALM      30.07F
ERIE MUNI ARPT MOSUNNY   71  56  58 CALM      30.04F
BOULDER MUN AP MOSUNNY   70  54  56 E7        30.04F
CENTENNIAL     PTSUNNY   69  54  58 E8        30.07F
BROOMFIELD     PTSUNNY   68  54  60 CALM      30.07F
FORT COLLINS   MOSUNNY   70  55  60 SE5       30.04F
LONGMONT       PTSUNNY   73  55  53 E5        30.05F
$$

COZ041-046-047-076>085-087-088-032000-
...PIKES PEAK/PALMER DIVIDE AND SOUTHERN FOOTHILLS...

CITY           SKY/WX    TMP DP  RH WIND       PRES   REMARKS
COLO. SPRINGS  PTSUNNY   74  50  42 E16       30.07F
A. F. ACADEMY  MOSUNNY   71  49  45 NE8       30.08F
ELLICOTT       MOSUNNY  N/A N/A N/A E16G25    30.06F
FALCON         MOSUNNY   69  51  51 NE15      30.12F
FORT CARSON    NOT AVBL
LIMON          PTSUNNY   68  59  73 NE9G20    30.06F
MONUMENT HILL  MOSUNNY   63  50  63 NW6       30.14F
TRINIDAD       MOSUNNY   78  49  35 E10       30.03F
$$

COZ042>045-048>051-090-091-032000-
...NORTHEAST COLORADO...

CITY           SKY/WX    TMP DP  RH WIND       PRES   REMARKS
GREELEY ARPT   MOSUNNY   72  57  60 S5        30.04F
AKRON          MOSUNNY   71  57  61 SW7       30.04F
BURLINGTON     CLOUDY    72  59  63 NE14      29.99F
WRAY           MOSUNNY   78  57  49 NE6       29.99F
STERLING       MOSUNNY   75  59  57 S5        30.01F
HOLYOKE        MOSUNNY   79  55  44 E7        30.00F
FORT MORGAN    MOSUNNY   71  54  54 E10       30.04F
$$

COZ086-089-092>099-032000-
...SOUTHEAST COLORADO...

CITY           SKY/WX    TMP DP  RH WIND       PRES   REMARKS
PUEBLO         MOSUNNY   77  58  51 E13       29.99F
LA JUNTA       PTSUNNY   78  60  53 N12       29.97F
LAMAR          CLOUDY    73  61  65 N14       29.93R
SPRINGFIELD      N/A     80  62  54 N20G26    29.93S
$$


USA.gov is the U.S. government's official web portal to all federal, state and local government web resources and services.